DECAYED

STARLINK-1328, 45576 (Decayed)

Orbit data source: Space-Track

STARLINK-1328, 45576 was a payload satellite owned by SpaceX/Seattle (US) in LEO that was launched on Wed, 22 Apr 2020 UTC via an FALCON 9 launch vehicle from the Air Force Eastern Test Range (AFETR). Payload-class satellites include a variety of spacecraft equipped with specific instruments for various scientific and technological missions. These include communications satellites like Starlink; space stations such as the ISS; scientific satellites like the Hubble; Earth observation satellites from companies like Planet Labs, Umbra, and HawkEye 360; GPS; miniature CubeSats for education and research; and military/defense satellites.

Not visible in the next 10 days
Identifier
45576, 2020-025AX
Orbit
Decayed
Country
Flag of USUS
Related business
Manufacturer
SpaceX/Seattle
Mission
Decayed Commercial Communications
Bus & Motor
STARLINK, Unknown motor
Mass
260 kg wet, ~248 kg dry
Launch date (UTC)
2020-04-22 (6 years ago)
Launch vehicle
FALCON 9
Launch site
Air Force Eastern Test Range (AFETR)
Object type
Payload
Rocket body
Debris
Shape & HBR
Box + 1 Pan, 10.1 m
Radar Cross Section
13.562 m², Large (>1 m²)

Expand to show TLE details & history
Last TLE update: 3 weeks ago

TLE from 3 weeks ago
0 STARLINK-1328
1 45576U 20025AX  26015.11706593  .08888197  12444-4  37069-3 0  9998
2 45576  53.0340 249.0042 0005250 260.7760  99.2694 16.43463426318397
Epoch: 2026-01-15T02:48Z
TLE epoch observation values (Epoch: 2026-01-15T02:48:34.496Z)
Latitude
-0.00002°
Longitude
92.28514°
Altitude
158.089 km
Speed
7.812 km/s
True Right ascension
16h 36m 01s
True Declination
0° 00' 00"
Sunlit
Object was in daylight at epoch
Visualization orbit readout
Latitude
Unknown
Longitude
Unknown
Altitude
Unknown
Speed
Unknown
Apparent Right ascension
Unknown
Apparent Declination
Unknown
Sunlit
N/A
Visualization observer readout
Local Sidereal Time
15:04:24
Azimuth
Unknown
Elevation
Unknown
Doppler factor
Unknown
Orbital elements
Apogee altitude
160.326 km
Perigee altitude
153.464 km
Semi-major axis
6,535.032 km
Eccentricity
0.00053
Inclination
53.034°
RAAN
249.0042°
Arg. of periapsis
260.776°
True anomaly
99.32877°
Mean anomaly
99.2694°
Eccentric anomaly
99.29908°
Mean motion
4.10839 °/min
Orbital period
87.63 mins
BSTAR
0.00037069
Loading maneuver chart data...
Computing Atmospheric mass density...
Loading historical data...
Loading historical data...
Loading historical data...
Loading historical data...
Loading historical data...
Loading historical data...
Loading historical data...

Documentation

Showing up to 5 results
|